Greenville/Spartanburg, SC

6:19 AM EDT on July 26, 2017 (GMT -0400)
Greenville-Spartanburg International

Weather History for KGSP - June, 2014

Change the Weather History Date:

Monday, June 9, 2014

  Actual Average Record
Temperature  
Mean Temperature 78 °F 75 °F  
Max Temperature 89 °F 86 °F 100 °F (1887)
Min Temperature 66 °F 64 °F 48 °F (1912)
Degree Days  
Heating Degree Days 0 0  
Month to date heating degree days 0 0  
Since 1 June heating degree days 0 0  
Since 1 July heating degree days 3208 3044  
Cooling Degree Days 13 10  
Month to date cooling degree days 96 85  
Year to date cooling degree days 352 286  
Since 1 June cooling degree days 96 85  
Growing Degree Days 28 (Base 50)    
Moisture  
Dew Point 65 °F    
Average Humidity 73    
Maximum Humidity 100    
Minimum Humidity 45    
Precipitation  
Precipitation 0.00 in 0.12 in 3.23 in (2013)
Month to date precipitation 0.16 1.14  
Year to date precipitation 19.97 20.57  
Snow  
Snow 0.00 in 0.00 in 0.00 in ()
Month to date snowfall 0.0 0.0  
Since 1 June snowfall 0.0 0.0  
Since 1 July snowfall 7.2 4.7  
Snow Depth 0.00 in    
Sea Level Pressure  
Sea Level Pressure 29.88 in    
Wind  
Wind Speed 4 mph (West)    
Max Wind Speed 15 mph    
Max Gust Speed 21 mph    
Visibility 9 miles    
Events Fog , Thunderstorm    
T = Trace of Precipitation, MM = Missing Value Source: NWS Daily Summary

Daily Weather History Graph

Daily Weather History Graph

Search for Another Location

Airport or City:

Trip Planner

Search our weather history database for the weather conditions in past years. The results will help you decide how hot, cold, wet, or windy it might be!

Date:

Astronomy

Jun. 09, 2014 Rise Set
Actual Time 6:14 AM EDT 8:41 PM EDT
Civil Twilight 5:45 AM EDT 9:11 PM EDT
Nautical Twilight 5:08 AM EDT 9:47 PM EDT
Astronomical Twilight 4:29 AM EDT 10:27 PM EDT
Moon 5:08 PM EDT (6/9) 3:32 AM EDT (6/9)
Length of Visible Light 15h 25m
Length of Day
14h 26m
Waxing Gibbous, 85% of the Moon is Illuminated
Jun 9
Waxing Gibbous
Jun 13
Full
Jun 19
Last Quarter
Jun 27
New
Jul 5
First Quarter

Hourly Weather History & Observations

Time (EDT) Temp. Heat Index Dew Point Humidity Pressure Visibility Wind Dir Wind Speed Gust Speed Precip Events Conditions
12:53 AM 70.0 °F - 64.0 °F 81% 29.88 in 10.0 mi WSW 6.9 mph - N/A   Clear
1:53 AM 70.0 °F - 64.0 °F 81% 29.85 in 10.0 mi Calm Calm - N/A   Clear
2:53 AM 70.0 °F - 64.0 °F 81% 29.83 in 10.0 mi Calm Calm - N/A   Clear
3:53 AM 69.1 °F - 63.0 °F 81% 29.83 in 10.0 mi North 3.5 mph - N/A   Clear
4:39 AM 66.9 °F - 63.0 °F 87% 29.87 in 10.0 mi NNE 4.6 mph - N/A   Scattered Clouds
4:48 AM 66.2 °F - 64.4 °F 94% 29.88 in 10.0 mi NNE 3.5 mph - N/A   Mostly Cloudy
4:53 AM 66.9 °F - 66.0 °F 97% 29.84 in 10.0 mi NNE 3.5 mph - N/A   Mostly Cloudy
5:38 AM 66.9 °F - 66.0 °F 97% 29.89 in 10.0 mi Calm Calm - N/A   Overcast
5:53 AM 66.9 °F - 66.9 °F 100% 29.86 in 10.0 mi Calm Calm - N/A   Overcast
6:07 AM 66.9 °F - 66.0 °F 97% 29.89 in 0.2 mi Calm Calm - N/A Fog Fog
6:53 AM 66.9 °F - 66.0 °F 97% 29.88 in 0.2 mi Calm Calm - N/A Fog Fog
7:07 AM 66.0 °F - 66.0 °F 100% 29.92 in 0.2 mi Calm Calm - N/A Fog Fog
7:22 AM 66.0 °F - 66.0 °F 100% 29.92 in 10.0 mi Calm Calm - N/A   Overcast
7:49 AM 66.2 °F - 66.2 °F 100% 29.93 in 10.0 mi Calm Calm - N/A   Scattered Clouds
7:53 AM 66.9 °F - 66.0 °F 97% 29.90 in 10.0 mi Calm Calm - N/A   Partly Cloudy
8:53 AM 73.0 °F - 66.9 °F 81% 29.90 in 10.0 mi NE 5.8 mph - N/A   Clear
9:53 AM 77.0 °F - 66.9 °F 71% 29.90 in 10.0 mi Variable 3.5 mph - N/A   Clear
10:28 AM 79.0 °F - 68.0 °F 69% 29.94 in 10.0 mi SE 3.5 mph - N/A   Mostly Cloudy
10:51 AM 78.8 °F - 66.2 °F 65% 29.94 in 10.0 mi Calm Calm - N/A   Scattered Clouds
10:53 AM 78.8 °F - 66.2 °F 65% 29.94 in 10.0 mi Calm Calm - N/A   Scattered Clouds
11:53 AM 82.0 °F 83.8 °F 64.9 °F 56% 29.90 in 10.0 mi Variable 4.6 mph - N/A   Clear
12:53 PM 82.9 °F 85.0 °F 66.0 °F 56% 29.89 in 10.0 mi Calm Calm - N/A   Clear
1:53 PM 86.0 °F 86.8 °F 63.0 °F 46% 29.88 in 10.0 mi SSW 9.2 mph - N/A   Clear
3:53 PM 86.0 °F 88.2 °F 66.2 °F 51% 29.87 in 10.0 mi SSW 10.4 mph 20.7 mph N/A   Mostly Cloudy
4:36 PM 88.0 °F 90.3 °F 66.0 °F 48% 29.87 in 10.0 mi SW 12.7 mph - N/A Thunderstorm Partly Cloudy
4:53 PM 84.0 °F 85.8 °F 64.9 °F 53% 29.84 in 10.0 mi Variable 6.9 mph 18.4 mph N/A Thunderstorm Mostly Cloudy
5:29 PM 82.9 °F 85.0 °F 66.0 °F 56% 29.88 in 10.0 mi NNW 9.2 mph - N/A Thunderstorm Thunderstorm
5:50 PM 80.6 °F 82.7 °F 66.2 °F 61% 29.88 in 10.0 mi NW 4.6 mph - N/A   Partly Cloudy
5:53 PM 81.0 °F 83.3 °F 66.9 °F 62% 29.84 in 10.0 mi WNW 3.5 mph - N/A   Partly Cloudy
6:53 PM 84.9 °F 88.2 °F 68.0 °F 57% 29.83 in 10.0 mi WSW 4.6 mph - N/A   Clear
7:53 PM 84.0 °F 85.4 °F 64.0 °F 51% 29.84 in 10.0 mi WSW 10.4 mph - N/A   Clear
8:53 PM 80.1 °F 81.7 °F 64.0 °F 58% 29.86 in 10.0 mi SW 4.6 mph - N/A   Clear
9:53 PM 78.1 °F - 64.9 °F 64% 29.87 in 10.0 mi SW 4.6 mph - N/A   Clear
10:53 PM 75.9 °F - 64.9 °F 69% 29.89 in 10.0 mi WSW 4.6 mph - N/A   Clear
11:53 PM 75.0 °F - 64.9 °F 71% 29.90 in 10.0 mi SSW 5.8 mph - N/A   Partly Cloudy